Location: *
(50.5492°N, 7.7469°E)
Time: 16:39:17
(UTC+00:00)

ASTEX 1 - Pass Details

Date: 21 October 2019
Orbit: 722 x 742 km, 92.7° (Epoch: 18 November)

Event Time Altitude Azimuth Distance (km) Brightness Sun altitude
Rises 18:01:50 0° 2° (N) 3,171 6.7 -15.9°
Reaches altitude 10° 18:04:10 10° 358° (N) 2,247 6.0 -16.3°
Maximum altitude 18:08:59 53° 282° (WNW) 902 4.2 -17.1°
Drops below altitude 10° 18:13:49 10° 206° (SSW) 2,243 6.2 -17.8°
Sets 18:16:08 0° 202° (SSW) 3,163 6.9 -18.2°
